When you browse on this site, cookies collect data to enhance your experience and personalize the content and advertising you see.
Visit our Privacy Policy to learn more. By continuing to use the site, you agree to this use of cookies and data.
  • In Switzerland
  • List of Countries
  • For 7 days
  • Water Temperature
  • Weather Map
  • Weather Widgets
  • user-avatar
    Login

    Hourly Weather Northampton

    Today, 18 September, Wednesday

    Time Temperature Precipitation Wind Pressure Humidity
    00:00 +9°C° 0 mm 1 mps 762 mmHg 85%
    01:00 +9°C° 0 mm 1 mps 762 mmHg 86%
    02:00 +9°C° 0 mm 1 mps 762 mmHg 86%
    03:00 +8°C° 0 mm 0 mps 762 mmHg 87%
    04:00 +8°C° 0 mm 0 mps 763 mmHg 87%
    05:00 +7°C° 0 mm 0 mps 763 mmHg 87%
    06:00 +7°C° 0 mm 0 mps 763 mmHg 84%
    07:00 +9°C° 0 mm 0 mps 763 mmHg 77%
    08:00 +11°C° 0 mm 0 mps 763 mmHg 70%
    09:00 +13°C° 0 mm 0 mps 763 mmHg 63%
    10:00 +15°C° 0 mm 1 mps 763 mmHg 59%
    11:00 +16°C° 0 mm 1 mps 763 mmHg 56%
    12:00 +18°C° 0 mm 1 mps 763 mmHg 53%
    13:00 +19°C° 0 mm 1 mps 763 mmHg 52%
    14:00 +18°C° 0 mm 2 mps 763 mmHg 51%
    15:00 +18°C° 0 mm 2 mps 763 mmHg 51%
    16:00 +17°C° 0 mm 2 mps 763 mmHg 57%
    17:00 +16°C° 0 mm 2 mps 763 mmHg 63%
    18:00 +15°C° 0 mm 1 mps 763 mmHg 69%
    19:00 +14°C° 0 mm 1 mps 763 mmHg 72%
    20:00 +14°C° 0 mm 1 mps 763 mmHg 75%
    21:00 +13°C° 0 mm 1 mps 764 mmHg 78%
    22:00 +12°C° 0 mm 1 mps 764 mmHg 79%
    23:00 +12°C° 0 mm 1 mps 764 mmHg 81%

    Tomorrow, 19 September, Thursday

    Time Temperature Precipitation Wind Pressure Humidity
    00:00 +11°C° 0 mm 0 mps 764 mmHg 82%
    01:00 +10°C° 0 mm 0 mps 764 mmHg 83%
    02:00 +10°C° 0 mm 0 mps 764 mmHg 84%
    03:00 +11°C° 0 mm 1 mps 764 mmHg 85%
    04:00 +10°C° 0 mm 0 mps 764 mmHg 86%
    05:00 +9°C° 0 mm 0 mps 764 mmHg 87%
    06:00 +9°C° 0 mm 0 mps 764 mmHg 87%
    07:00 +11°C° 0 mm 0 mps 764 mmHg 81%
    08:00 +13°C° 0 mm 0 mps 764 mmHg 74%
    09:00 +15°C° 0 mm 0 mps 765 mmHg 68%
    10:00 +16°C° 0 mm 0 mps 764 mmHg 64%
    11:00 +19°C° 0 mm 1 mps 764 mmHg 60%
    12:00 +20°C° 0 mm 1 mps 764 mmHg 56%
    13:00 +21°C° 0 mm 1 mps 764 mmHg 55%
    14:00 +20°C° 0 mm 2 mps 764 mmHg 53%
    15:00 +21°C° 0 mm 2 mps 764 mmHg 52%
    16:00 +19°C° 0 mm 2 mps 764 mmHg 57%
    17:00 +19°C° 0 mm 1 mps 763 mmHg 62%
    18:00 +18°C° 0 mm 1 mps 763 mmHg 66%
    19:00 +16°C° 0 mm 2 mps 763 mmHg 69%
    20:00 +15°C° 0 mm 2 mps 763 mmHg 73%
    21:00 +14°C° 0 mm 2 mps 764 mmHg 76%
    22:00 +13°C° 0 mm 2 mps 763 mmHg 78%
    23:00 +13°C° 0 mm 2 mps 763 mmHg 81%

    Day after tomorrow, 20 September, Friday

    Time Temperature Precipitation Wind Pressure Humidity
    00:00 +12°C° 0 mm 2 mps 763 mmHg 83%
    01:00 +12°C° 0 mm 2 mps 763 mmHg 85%
    02:00 +10°C° 0 mm 2 mps 763 mmHg 87%
    03:00 +10°C° 0 mm 2 mps 762 mmHg 89%
    04:00 +10°C° 0 mm 2 mps 762 mmHg 91%
    05:00 +10°C° 0 mm 2 mps 762 mmHg 92%
    06:00 +9°C° 0 mm 2 mps 761 mmHg 94%
    07:00 +12°C° 0 mm 2 mps 761 mmHg 87%
    08:00 +13°C° 0 mm 3 mps 761 mmHg 81%
    09:00 +15°C° 0 mm 4 mps 761 mmHg 74%
    10:00 +17°C° 0 mm 4 mps 761 mmHg 68%
    11:00 +17°C° 0 mm 5 mps 760 mmHg 61%
    12:00 +19°C° 0 mm 5 mps 760 mmHg 55%
    13:00 +20°C° 0 mm 5 mps 759 mmHg 53%
    14:00 +20°C° 0 mm 6 mps 758 mmHg 50%
    15:00 +20°C° 0 mm 6 mps 758 mmHg 48%
    16:00 +17°C° 0 mm 5 mps 757 mmHg 53%
    17:00 +16°C° 0 mm 5 mps 756 mmHg 57%
    18:00 +14°C° 0 mm 5 mps 756 mmHg 61%
    19:00 +13°C° 0 mm 5 mps 756 mmHg 66%
    20:00 +13°C° 0 mm 5 mps 756 mmHg 70%
    21:00 +12°C° 0 mm 5 mps 755 mmHg 75%
    22:00 +12°C° 0 mm 5 mps 755 mmHg 76%
    23:00 +12°C° 0 mm 5 mps 754 mmHg 76%

    21 September, Saturday

    Time Temperature Precipitation Wind Pressure Humidity
    00:00 +12°C° 0 mm 5 mps 754 mmHg 77%
    01:00 +12°C° 0 mm 5 mps 753 mmHg 76%
    02:00 +12°C° 0 mm 5 mps 753 mmHg 75%
    03:00 +11°C° 0 mm 4 mps 752 mmHg 74%
    04:00 +10°C° 0 mm 5 mps 752 mmHg 74%
    05:00 +10°C° 0 mm 5 mps 751 mmHg 74%
    06:00 +10°C° 0 mm 5 mps 751 mmHg 74%
    07:00 +12°C° 0 mm 5 mps 750 mmHg 69%
    08:00 +14°C° 0 mm 6 mps 750 mmHg 65%
    09:00 +15°C° 0 mm 6 mps 750 mmHg 60%
    10:00 +17°C° 0 mm 6 mps 749 mmHg 57%
    11:00 +20°C° 0 mm 6 mps 749 mmHg 54%
    12:00 +21°C° 0 mm 6 mps 748 mmHg 51%
    13:00 +22°C° 0 mm 6 mps 748 mmHg 51%
    14:00 +23°C° 0 mm 6 mps 747 mmHg 51%
    15:00 +23°C° 0 mm 6 mps 746 mmHg 52%
    16:00 +22°C° 0 mm 5 mps 746 mmHg 58%
    17:00 +20°C° 0 mm 5 mps 746 mmHg 63%
    18:00 +19°C° 0 mm 4 mps 746 mmHg 69%
    19:00 +19°C° 0 mm 4 mps 745 mmHg 70%
    20:00 +18°C° 0 mm 4 mps 745 mmHg 72%
    21:00 +18°C° 0 mm 4 mps 745 mmHg 73%
    22:00 +18°C° 0.3 mm 4 mps 745 mmHg 75%
    23:00 +18°C° 0.3 mm 4 mps 744 mmHg 78%

    22 September, Sunday

    Time Temperature Precipitation Wind Pressure Humidity
    00:00 +19°C° 0.3 mm 4 mps 744 mmHg 80%
    01:00 +19°C° 0.1 mm 4 mps 744 mmHg 82%
    02:00 +18°C° 0.1 mm 4 mps 744 mmHg 85%
    03:00 +18°C° 0.1 mm 4 mps 743 mmHg 87%
    04:00 +18°C° 0.1 mm 3 mps 743 mmHg 90%
    05:00 +17°C° 0.1 mm 3 mps 743 mmHg 92%
    06:00 +17°C° 0.1 mm 3 mps 743 mmHg 95%
    07:00 +17°C° 0.4 mm 3 mps 744 mmHg 93%
    08:00 +15°C° 0.4 mm 4 mps 744 mmHg 91%
    09:00 +15°C° 0.4 mm 4 mps 744 mmHg 89%
    10:00 +16°C° 0.2 mm 5 mps 744 mmHg 80%
    11:00 +17°C° 0.2 mm 5 mps 744 mmHg 72%
    12:00 +20°C° 0.2 mm 6 mps 745 mmHg 63%
    13:00 +19°C° 0.1 mm 6 mps 744 mmHg 63%
    14:00 +19°C° 0.1 mm 6 mps 744 mmHg 64%
    15:00 +19°C° 0.1 mm 6 mps 744 mmHg 64%
    16:00 +17°C° 0 mm 6 mps 744 mmHg 68%
    17:00 +16°C° 0 mm 6 mps 745 mmHg 71%
    18:00 +15°C° 0 mm 7 mps 745 mmHg 75%
    19:00 +14°C° 0 mm 6 mps 746 mmHg 76%
    20:00 +13°C° 0 mm 6 mps 746 mmHg 77%
    21:00 +11°C° 0 mm 6 mps 747 mmHg 79%
    22:00 +12°C° 0 mm 5 mps 748 mmHg 80%
    23:00 +10°C° 0 mm 5 mps 748 mmHg 81%

    23 September, Monday

    Time Temperature Precipitation Wind Pressure Humidity
    00:00 +11°C° 0 mm 4 mps 748 mmHg 83%
    01:00 +10°C° 0 mm 4 mps 748 mmHg 85%
    02:00 +10°C° 0 mm 3 mps 749 mmHg 88%
    03:00 +10°C° 0 mm 3 mps 749 mmHg 90%
    04:00 +10°C° 0 mm 3 mps 749 mmHg 91%
    05:00 +10°C° 0 mm 3 mps 749 mmHg 91%
    06:00 +10°C° 0 mm 3 mps 749 mmHg 92%
    07:00 +11°C° 0 mm 4 mps 748 mmHg 88%
    08:00 +13°C° 0 mm 5 mps 748 mmHg 84%
    09:00 +14°C° 0 mm 6 mps 748 mmHg 80%
    10:00 +14°C° 0.3 mm 6 mps 748 mmHg 83%
    11:00 +14°C° 0.3 mm 6 mps 747 mmHg 86%
    12:00 +14°C° 0.3 mm 7 mps 747 mmHg 89%
    13:00 +14°C° 0.8 mm 7 mps 746 mmHg 91%
    14:00 +15°C° 0.8 mm 6 mps 746 mmHg 92%
    15:00 +16°C° 0.8 mm 6 mps 745 mmHg 93%
    16:00 +16°C° 0.5 mm 6 mps 745 mmHg 93%
    17:00 +17°C° 0.5 mm 6 mps 745 mmHg 94%
    18:00 +17°C° 0.5 mm 6 mps 744 mmHg 94%
    19:00 +17°C° 0.1 mm 6 mps 745 mmHg 93%
    20:00 +17°C° 0.1 mm 6 mps 745 mmHg 93%
    21:00 +17°C° 0.1 mm 6 mps 746 mmHg 93%
    22:00 +17°C° 0 mm 6 mps 746 mmHg 93%
    23:00 +16°C° 0 mm 6 mps 746 mmHg 94%
    Show more